Detroit Metro, MI

10:08 PM EST on December 11, 2017 (GMT -0500)
Detroit Metro Wayne County

Weather History for KDTW - May, 2013

Change the Weather History Date:

Thursday, May 9, 2013

  Actual Average Record
Temperature  
Mean Temperature 67 °F 57 °F  
Max Temperature 81 °F 68 °F 90 °F (1896)
Min Temperature 53 °F 47 °F 29 °F (1983)
Degree Days  
Heating Degree Days 0 8  
Month to date heating degree days 9 85  
Since 1 July heating degree days 5778 5979  
Cooling Degree Days 2 1  
Month to date cooling degree days 11 4  
Year to date cooling degree days 11 10  
Growing Degree Days 17 (Base 50)    
Moisture  
Dew Point 49 °F    
Average Humidity 59    
Maximum Humidity 89    
Minimum Humidity 29    
Precipitation  
Precipitation 0.00 in 0.10 in 2.12 in (1875)
Month to date precipitation 0.01 0.91  
Year to date precipitation 12.32 10.07  
Snow  
Snow 0.00 in 0.00 in 6.00 in (1923)
Month to date snowfall 0.0 0.0  
Since 1 July snowfall 47.7 42.5  
Snow Depth 0.00 in    
Sea Level Pressure  
Sea Level Pressure 29.95 in    
Wind  
Wind Speed 5 mph (SSE)    
Max Wind Speed 14 mph    
Max Gust Speed 22 mph    
Visibility 9 miles    
Events      
T = Trace of Precipitation, MM = Missing Value Source: NWS Daily Summary

Daily Weather History Graph

Daily Weather History Graph

Search for Another Location

Airport or City:

Trip Planner

Search our weather history database for the weather conditions in past years. The results will help you decide how hot, cold, wet, or windy it might be!

Date:

Astronomy

May. 09, 2013 Rise Set
Actual Time 6:18 AM EDT 8:41 PM EDT
Civil Twilight 5:47 AM EDT 9:13 PM EDT
Nautical Twilight 5:08 AM EDT 9:52 PM EDT
Astronomical Twilight 4:24 AM EDT 10:36 PM EDT
Moon 6:03 AM EDT (5/9) 8:35 PM EDT (5/9)
Length of Visible Light 15h 26m
Length of Day
14h 23m
Waning Crescent, 0% of the Moon is Illuminated
May 9
Waning Crescent
May 9
New
May 18
First Quarter
May 25
Full
May 31
Last Quarter

Hourly Weather History & Observations

Time (EDT) Temp. Dew Point Humidity Pressure Visibility Wind Dir Wind Speed Gust Speed Precip Events Conditions
12:53 AM 57.9 °F 53.1 °F 84% 29.98 in 10.0 mi SSW 5.8 mph - N/A   Mostly Cloudy
1:53 AM 57.0 °F 53.1 °F 87% 29.96 in 9.0 mi Calm Calm - N/A   Scattered Clouds
2:53 AM 57.9 °F 53.1 °F 84% 29.94 in 10.0 mi Calm Calm - N/A   Scattered Clouds
3:53 AM 57.0 °F 52.0 °F 83% 29.93 in 7.0 mi Calm Calm - N/A   Mostly Cloudy
4:53 AM 55.9 °F 51.1 °F 84% 29.94 in 5.0 mi Calm Calm - N/A   Haze
5:53 AM 54.0 °F 50.0 °F 86% 29.94 in 5.0 mi Calm Calm - N/A   Mostly Cloudy
6:53 AM 55.0 °F 52.0 °F 89% 29.96 in 4.0 mi Calm Calm - N/A   Mostly Cloudy
7:53 AM 61.0 °F 55.0 °F 81% 29.96 in 5.0 mi Calm Calm - N/A   Haze
8:53 AM 64.9 °F 55.0 °F 70% 29.97 in 10.0 mi Calm Calm - N/A   Scattered Clouds
9:53 AM 71.1 °F 53.1 °F 53% 29.98 in 10.0 mi Calm Calm - N/A   Partly Cloudy
10:53 AM 73.9 °F 52.0 °F 46% 29.97 in 10.0 mi Calm Calm - N/A   Partly Cloudy
11:53 AM 77.0 °F 50.0 °F 39% 29.98 in 10.0 mi SW 4.6 mph - N/A   Scattered Clouds
12:53 PM 78.8 °F 48.2 °F 34% 29.98 in 10.0 mi SSE 6.9 mph - N/A   Scattered Clouds
1:53 PM 80.1 °F 48.9 °F 34% 29.96 in 10.0 mi South 6.9 mph - N/A   Mostly Cloudy
2:53 PM 79.0 °F 50.0 °F 36% 29.95 in 10.0 mi South 13.8 mph - N/A   Overcast
3:53 PM 78.8 °F 51.8 °F 39% 29.94 in 10.0 mi SSE 11.5 mph - N/A   Overcast
4:53 PM 78.1 °F 48.0 °F 35% 29.93 in 10.0 mi SSE 9.2 mph - N/A   Overcast
5:53 PM 77.0 °F 48.9 °F 37% 29.92 in 10.0 mi SE 10.4 mph - N/A   Overcast
6:53 PM 75.0 °F 45.0 °F 34% 29.92 in 10.0 mi SE 6.9 mph - N/A   Overcast
7:53 PM 73.0 °F 39.9 °F 30% 29.91 in 10.0 mi SE 6.9 mph - N/A   Overcast
8:53 PM 70.0 °F 45.0 °F 41% 29.92 in 10.0 mi SE 5.8 mph - N/A   Overcast
9:53 PM 68.0 °F 42.8 °F 40% 29.93 in 10.0 mi SE 4.6 mph - N/A   Overcast
10:53 PM 68.0 °F 44.1 °F 42% 29.92 in 10.0 mi SSE 6.9 mph - N/A   Overcast
11:53 PM 68.0 °F 46.9 °F 47% 29.91 in 10.0 mi SSE 6.9 mph - N/A   Overcast